CZ-6A DEB, 61153

Orbit data source: Space-Track

CZ-6A DEB, 61153 is space debris in LEO originally from a launch on Tue, 06 Aug 2024 UTC launched from the Taiyaun Space Center, China (TSC). Debris objects in space refer to the collection of defunct objects orbiting the Earth. Examples of debris include non-operational satellites, rocket bodies, and fragments generated from explosions, collisions, or faulty payload assembly.

Loading next visibility...
Identifier
61153, 2024-140QX
Orbit
LEO
Country
Flag of CNCN / PRC
Related business
Manufacturer
SAST
Mission
Spacecraft
Bus & Motor
Unknown
Mass
Unknown
Launch date (UTC)
2024-08-06 (2 years ago)
Launch vehicle
Unknown
Launch site
Taiyaun Space Center, China (TSC)
Object type
Payload
Rocket body
Debris
Shape & HBR
Unknown shape, 0.1 m
Radar Cross Section
Medium (>0.1 m² and <1 m²)

Expand to show TLE details & history
Last TLE update: 16 hours ago

TLE from 16 hours ago
0 CZ-6A DEB
1 61153U 24140QX  26171.30798653  .00000907  00000-0  39731-3 0  9997
2 61153  89.0033 274.3341 0043083 187.3785 172.6778 14.22417939 94825
Epoch: 2026-06-20T07:23Z
TLE epoch observation values (Epoch: 2026-06-20T07:23:30.036Z)
Latitude
-0.00001°
Longitude
-105.06553°
Altitude
850.999 km
Speed
7.411 km/s
True Right ascension
18h 17m 20s
True Declination
0° 00' 00"
Sunlit
Object was in full shadow at epoch
Visualization orbit readout
Latitude
Unknown
Longitude
Unknown
Altitude
Unknown
Speed
Unknown
Apparent Right ascension
Unknown
Apparent Declination
Unknown
Sunlit
N/A
Visualization observer readout
Local Sidereal Time
10:20:28
Azimuth
Unknown
Elevation
Unknown
Doppler factor
Unknown
Orbital elements
Apogee altitude
845.121 km
Perigee altitude
783.148 km
Semi-major axis
7,192.272 km
Eccentricity
0.00431
Inclination
89.0033°
RAAN
274.3341°
Arg. of periapsis
187.3785°
True anomaly
172.74039°
Mean anomaly
172.6778°
Eccentric anomaly
172.70913°
Mean motion
3.55831 °/min
Orbital period
101.17 mins
BSTAR
0.00039731
Loading maneuver chart data...
Computing Atmospheric mass density...
Loading historical data...
Loading historical data...
Loading historical data...
Loading historical data...
Loading historical data...
Loading historical data...
Loading historical data...

Documentation

Showing up to 5 results
|